Location: Amsterdam
(30.7274°N, 84.4357°W)
Time: 17:21:00
(UTC+00:00)

Injun/Solrad 3 - Pass Details

Date: 23 February 2026
Orbit: 871 x 985 km, 66.8° (Epoch: 11 March)

Event Time Altitude Azimuth Distance (km) Brightness Sun altitude
Rises 15:15:20 0° 210° (SSW) 3,444 11.0 35.0°
Reaches altitude 10° 15:17:49 10° 212° (SSW) 2,508 10.4 35.4°
Maximum altitude 15:23:34 70° 296° (WNW) 930 8.3 36.3°
Drops below altitude 10° 15:29:26 10° 20° (NNE) 2,550 10.1 37.2°
Sets 15:31:58 0° 23° (NNE) 3,506 10.7 37.6°
